Lid_Strength_Index
2 1 1 1 1 1 1 1 1 1 0 0 0 0 0 0 1 2 6 3 2 -2 -1 4 4 5 6 9 8 8 11 12 10 9 8 6 7 5 4 6 5 4 4 3 2
2 2 1 1 1 1 1 1 1 1 1 1 0 0 1 1 3 4 0 -2 -2 -3 5 5 5 5 8 9 9 9 12 11 8 7 9 6 6 6 6 6 6 5 3 2 3
1 1 1 1 1 1 1 1 1 1 1 1 1 1 1 1 5 5 -3 -3 -3 -0 4 4 4 5 9 9 8 9 11 8 7 7 7 6 7 5 6 8 6 6 4 3 3
1 1 1 1 1 1 1 1 1 0 1 1 1 1 1 3 9 6 -4 -4 -3 3 4 4 5 8 9 9 7 10 8 7 8 8 8 8 5 7 8 7 4 4 4 4 4
1 1 1 1 1 1 1 1 1 1 1 1 1 1 4 6 6 3 -5 -3 2 4 5 5 5 8 9 9 7 9 8 7 7 7 8 7 7 8 8 6 4 3 3 4 5
1 1 1 1 1 2 2 2 2 2 1 1 1 1 3 8 3 3 1 3 2 4 4 4 6 6 8 8 9 7 8 8 8 9 8 8 8 7 7 6 4 4 4 4 3
2 2 2 2 1 1 2 2 2 2 1 1 0 2 5 6 2 3 3 4 3 4 5 4 4 6 7 8 7 7 9 8 8 8 8 7 9 8 6 5 5 5 5 4 3
2 2 2 2 2 1 1 2 2 2 1 0 -0 4 6 2 4 4 4 4 3 4 4 4 4 6 8 6 7 9 9 12 9 7 7 8 12 7 6 6 6 5 5 4 4
2 2 2 2 2 2 2 2 2 1 1 0 3 5 6 2 5 3 4 4 4 4 4 3 6 7 7 10 11 10 13 13 11 8 8 9 11 7 6 7 7 7 6 5 4
3 2 2 2 2 2 2 2 1 2 1 1 2 6 5 5 4 3 3 3 5 5 5 6 8 10 10 11 14 12 13 11 10 9 9 11 10 7 6 6 6 7 6 5 4
2 3 3 2 2 2 3 4 5 5 5 6 5 5 4 4 3 4 3 4 5 6 9 7 11 12 10 9 8 9 10 11 9 7 9 10 10 8 7 7 7 7 7 6 5
3 3 3 2 2 3 4 4 4 5 7 4 3 4 3 4 5 4 3 6 6 8 7 9 11 8 7 8 8 9 11 11 9 7 9 9 10 8 7 7 7 7 7 5 5
3 3 3 3 3 4 4 2 2 3 7 5 3 4 4 4 5 5 4 5 7 8 8 10 8 6 7 9 9 10 11 10 10 8 8 10 11 9 7 7 6 6 6 5 5
3 3 3 3 4 3 3 1 2 2 10 7 6 4 3 4 5 3 3 5 7 8 8 9 7 7 9 9 8 11 8 8 9 10 14 10 15 11 9 8 7 7 7 5 5
3 3 3 4 5 4 3 2 2 3 18 7 7 4 4 6 5 5 3 5 7 7 8 9 8 8 9 8 7 9 7 9 9 11 12 11 14 12 9 11 9 7 5 5 5
3 3 4 3 4 4 1 2 3 11 16 8 7 7 6 6 5 4 4 4 5 7 7 8 6 8 8 6 7 7 8 9 11 13 15 14 14 14 12 11 10 7 6 5 5
3 3 4 1 3 1 1 4 11 14 7 9 9 7 7 7 6 6 6 7 9 11 11 8 8 7 6 8 7 8 12 16 17 16 16 11 14 13 9 7 7 7 6 5 5
4 4 2 0 -0 1 2 7 15 9 9 6 7 7 8 6 7 5 7 9 7 8 10 12 13 8 6 8 10 10 12 15 20 19 17 11 16 13 8 7 7 7 6 5 5
4 1 1 1 0 1 5 12 11 9 7 8 8 9 9 7 7 7 8 9 8 8 12 12 11 6 6 6 8 10 12 10 14 13 15 14 12 9 7 7 7 7 6 7 7
4 2 2 1 1 3 8 11 9 6 6 7 9 8 10 9 9 9 9 7 8 6 7 9 13 8 7 6 7 9 9 13 14 20 21 16 15 14 10 9 8 8 8 8 7
2 5 2 1 1 5 11 9 7 5 6 7 8 9 9 9 9 9 9 8 6 7 7 9 12 11 8 10 11 10 11 11 12 14 18 19 16 9 10 9 8 8 8 8 7
3 8 2 1 7 7 9 7 7 5 5 5 5 6 8 8 10 9 9 8 4 6 9 9 11 14 12 8 7 9 11 11 16 16 15 16 16 8 8 8 7 7 6 7 7
5 5 1 2 10 9 7 6 5 5 6 6 7 7 7 9 11 8 8 6 4 7 9 9 13 16 14 11 9 10 9 10 11 12 15 17 15 8 7 7 6 8 8 7 7
5 8 5 4 5 8 8 8 8 5 5 5 6 6 8 9 8 9 8 6 5 6 5 7 11 13 16 13 11 12 10 10 11 15 14 14 13 10 9 8 8 8 7 7 6
5 7 6 9 7 7 7 8 8 8 5 5 7 7 8 11 9 10 8 7 6 6 7 9 13 12 11 10 9 10 10 9 11 11 14 12 12 11 9 9 8 7 7 6 7
6 7 5 7 6 7 8 8 7 7 7 8 8 7 8 10 10 11 9 9 10 8 9 9 13 12 13 10 10 11 9 9 9 9 10 10 11 7 8 7 7 7 7 7 6
2 3 5 7 7 8 8 7 6 6 6 5 6 7 8 8 6 7 7 7 8 10 10 10 12 14 16 11 11 14 11 10 9 9 10 13 10 8 9 8 8 7 6 6 6